Location: Carnoy
(49.9849°N, 2.7558°E)
Time: 20:45:14
(UTC+00:00)

Helios 1A Rocket - Pass Details

Date: 24 January 2020
Orbit: 565 x 586 km, 98.3° (Epoch: 16 February)

Event Time Altitude Azimuth Distance (km) Brightness Sun altitude
Rises 17:05:36 0° 180° (S) 2,753 6.7 -6.1°
Reaches altitude 10° 17:07:48 10° 187° (S) 1,863 5.9 -6.5°
Maximum altitude 17:11:40 44° 260° (W) 798 4.3 -7.0°
Drops below altitude 10° 17:15:35 10° 334° (NNW) 1,888 5.6 -7.6°
Sets 17:17:50 0° 341° (NNW) 2,795 6.4 -7.9°
